User: anonymous   Login
Location: Joplin
(37.0842°N, 94.5131°W)
Time: 05:48:11
(UTC-05:00)
Language:

N. Korean satellite - Orbit

View from above orbital plane
View from above orbital plane
View from above satellite
View from above satellite

Ground track
Ground track

The orbit data is extracted from the following two-line orbital elements,

1 39026U 12072A   19286.89206076 +.00001445 +00000-0 +54318-4 0  9995
2 39026 097.2152 286.2826 0039179 046.5543 313.8945 15.28060064379439
Epoch (UTC): 13 October 2019 21:24:34
Eccentricity: 0.0039179
inclination: 97.2152°
perigee height: 455 km
apogee height: 508 km
right ascension of ascending node: 286.2826°
argument of perigee: 46.5543°
revolutions per day: 15.28060064
mean anomaly at epoch: 313.8945°
orbit number at epoch: 37943

The dashed part of the orbit path shows where the satellite is in the earth's shadow,  

DLR